| time (UTC) | temp C | wind direction | speed KPH | gust KPH | rain 1hr cm | rain 24hr cm | rain mn cm | humidity % | barometer mb |
| 20260503184724 | 21 | 211 | 9.7 | 6.4 | 0.03 | 0.00 | 0.00 | 68 | 1016.0 |
| 20260503183724 | 23 | 226 | 8.0 | 6.4 | 0.03 | 0.00 | 0.00 | 67 | 1016.0 |
| 20260503182723 | 22 | 226 | 8.0 | 6.4 | 0.00 | 0.00 | 0.00 | 67 | 1017.0 |
| 20260503181722 | 21 | 226 | 8.0 | 6.4 | 0.00 | 0.00 | 0.00 | 67 | 1017.0 |
| 20260503180722 | 23 | 223 | 6.4 | 8.0 | 0.00 | 0.00 | 0.00 | 64 | 1017.0 |
| 20260503175721 | 22 | 223 | 6.4 | 8.0 | 0.00 | 0.00 | 0.00 | 64 | 1017.0 |
| 20260503174721 | 21 | 223 | 6.4 | 8.0 | 0.00 | 0.00 | 0.00 | 64 | 1017.0 |
| 20260503173720 | 20 | 223 | 6.4 | 8.0 | 0.00 | 0.00 | 0.00 | 64 | 1017.0 |
| 20260503172719 | 20 | 223 | 6.4 | 8.0 | 0.00 | 0.00 | 0.00 | 64 | 1017.0 |
| 20260503171719 | 22 | 223 | 6.4 | 8.0 | 0.00 | 0.00 | 0.00 | 63 | 1017.0 |
| 20260503170718 | 21 | 223 | 6.4 | 8.0 | 0.00 | 0.00 | 0.00 | 63 | 1017.0 |
| 20260503150710 | 19 | 196 | 1.6 | 6.4 | 0.00 | 0.00 | 0.00 | 71 | 1017.0 |
| 20260503130704 | 15 | 53 | 6.4 | 8.0 | 0.00 | 0.00 | 0.00 | 86 | 1018.0 |
| 20260503110655 | 13 | 42 | 14.5 | 17.7 | 0.00 | 0.00 | 0.00 | 91 | 1018.0 |
| 20260503080644 | 15 | 52 | 6.4 | 4.8 | 0.00 | 0.00 | 0.00 | 89 | 1018.0 |
| 20260503072641 | 15 | 46 | 8.0 | 8.0 | 0.00 | 0.00 | 0.00 | 89 | 1019.0 |
| 20260503071641 | 13 | 46 | 9.7 | 8.0 | 0.00 | 0.00 | 0.00 | 89 | 1019.0 |
| 20260503070640 | 15 | 46 | 8.0 | 8.0 | 0.00 | 0.00 | 0.00 | 89 | 1019.0 |
| 20260503054635 | 15 | 46 | 8.0 | 6.4 | 0.00 | 0.00 | 0.00 | 86 | 1019.0 |
| 20260503053634 | 15 | 46 | 8.0 | 6.4 | 0.00 | 0.00 | 0.00 | 86 | 1019.0 |
| 20260503052634 | 13 | 46 | 9.7 | 6.4 | 0.00 | 0.00 | 0.00 | 86 | 1019.0 |
| 20260503051633 | 15 | 46 | 8.0 | 6.4 | 0.00 | 0.00 | 0.00 | 85 | 1019.0 |
| 20260503050632 | 15 | 46 | 8.0 | 6.4 | 0.00 | 0.00 | 0.00 | 85 | 1019.0 |
| 20260503045632 | 14 | 46 | 9.7 | 6.4 | 0.00 | 0.00 | 0.00 | 85 | 1019.0 |
| 20260503044631 | 15 | 46 | 8.0 | 6.4 | 0.00 | 0.00 | 0.00 | 85 | 1019.0 |
| 20260503043630 | 14 | 46 | 9.7 | 6.4 | 0.00 | 0.00 | 0.00 | 85 | 1019.0 |
| 20260503042630 | 17 | 54 | 8.0 | 6.4 | 0.00 | 0.00 | 0.00 | 85 | 1018.0 |
| 20260503041629 | 16 | 54 | 8.0 | 6.4 | 0.00 | 0.00 | 0.00 | 85 | 1018.0 |
| 20260503040628 | 16 | 54 | 8.0 | 6.4 | 0.00 | 0.00 | 0.00 | 85 | 1018.0 |
| 20260503035628 | 15 | 54 | 8.0 | 6.4 | 0.00 | 0.00 | 0.00 | 85 | 1018.0 |
| 20260503034627 | 17 | 51 | 6.4 | 4.8 | 0.00 | 0.00 | 0.00 | 86 | 1018.0 |
| 20260503033626 | 16 | 51 | 6.4 | 4.8 | 0.00 | 0.00 | 0.00 | 86 | 1018.0 |
| 20260503032626 | 15 | 51 | 6.4 | 4.8 | 0.00 | 0.00 | 0.00 | 86 | 1017.0 |
| 20260503031625 | 17 | 51 | 6.4 | 4.8 | 0.00 | 0.00 | 0.00 | 84 | 1017.0 |
| 20260503030624 | 16 | 51 | 6.4 | 4.8 | 0.00 | 0.00 | 0.00 | 84 | 1017.0 |
| 20260503025624 | 15 | 51 | 6.4 | 4.8 | 0.00 | 0.00 | 0.00 | 84 | 1017.0 |
| 20260503024623 | 17 | 51 | 6.4 | 6.4 | 0.00 | 0.00 | 0.00 | 87 | 1017.0 |
| 20260503023622 | 16 | 51 | 6.4 | 6.4 | 0.00 | 0.00 | 0.00 | 87 | 1017.0 |
| 20260503022622 | 15 | 51 | 6.4 | 6.4 | 0.00 | 0.00 | 0.00 | 87 | 1016.0 |
| 20260503021621 | 17 | 51 | 6.4 | 6.4 | 0.00 | 0.00 | 0.00 | 86 | 1016.0 |
| 20260503020620 | 16 | 51 | 6.4 | 6.4 | 0.00 | 0.00 | 0.00 | 86 | 1016.0 |
| 20260503015620 | 15 | 51 | 6.4 | 6.4 | 0.00 | 0.00 | 0.00 | 86 | 1016.0 |
| 20260503014619 | 17 | 39 | 4.8 | 1.6 | 0.00 | 0.00 | 0.00 | 88 | 1016.0 |
| 20260503013618 | 17 | 39 | 4.8 | 1.6 | 0.00 | 0.00 | 0.00 | 88 | 1016.0 |
| 20260503012618 | 16 | 39 | 4.8 | 3.2 | 0.00 | 0.00 | 0.00 | 88 | 1015.0 |
| 20260503011613 | 17 | 39 | 4.8 | 3.2 | 0.00 | 0.00 | 0.00 | 85 | 1015.0 |
| 20260503010612 | 17 | 39 | 4.8 | 3.2 | 0.00 | 0.00 | 0.00 | 85 | 1015.0 |
| 20260503005611 | 17 | 39 | 4.8 | 3.2 | 0.00 | 0.00 | 0.00 | 84 | 1015.0 |
| 20260503004611 | 17 | 39 | 4.8 | 3.2 | 0.00 | 0.00 | 0.00 | 84 | 1015.0 |
| 20260503003610 | 18 | 39 | 4.8 | 3.2 | 0.00 | 0.00 | 0.00 | 81 | 1015.0 |
| 20260503002610 | 17 | 276 | 0.0 | 3.2 | 0.00 | 0.00 | 0.00 | 81 | 1014.0 |
| 20260503001609 | 16 | 276 | 0.0 | 3.2 | 0.00 | 0.00 | 0.00 | 81 | 1014.0 |
| 20260503000608 | 18 | 276 | 0.0 | 3.2 | 0.00 | 0.00 | 0.00 | 80 | 1014.0 |
| 20260502235608 | 17 | 276 | 0.0 | 3.2 | 0.00 | 0.00 | 0.00 | 80 | 1014.0 |
| 20260502234607 | 18 | 276 | 0.0 | 3.2 | 0.00 | 0.00 | 0.00 | 80 | 1014.0 |
| 20260502233605 | 17 | 276 | 0.0 | 3.2 | 0.00 | 0.00 | 0.00 | 80 | 1014.0 |
| 20260502232605 | 19 | 244 | 4.8 | 4.8 | 0.00 | 0.00 | 0.00 | 80 | 1014.0 |
| 20260502231604 | 18 | 244 | 4.8 | 4.8 | 0.00 | 0.00 | 0.00 | 80 | 1014.0 |
| 20260502230604 | 19 | 244 | 4.8 | 4.8 | 0.00 | 0.00 | 0.00 | 80 | 1014.0 |
| 20260502225603 | 20 | 244 | 4.8 | 4.8 | 0.00 | 0.00 | 0.00 | 77 | 1014.0 |
| 20260502224602 | 21 | 244 | 4.8 | 4.8 | 0.00 | 0.00 | 0.00 | 78 | 1014.0 |
| 20260502223602 | 21 | 244 | 4.8 | 4.8 | 0.00 | 0.00 | 0.00 | 78 | 1014.0 |
| 20260502222601 | 21 | 222 | 11.3 | 4.8 | 0.00 | 0.00 | 0.00 | 75 | 1013.0 |
| 20260502221600 | 21 | 222 | 11.3 | 4.8 | 0.00 | 0.00 | 0.00 | 72 | 1013.0 |
| 20260502220600 | 21 | 222 | 11.3 | 4.8 | 0.00 | 0.00 | 0.00 | 72 | 1013.0 |
| 20260502215559 | 22 | 222 | 11.3 | 4.8 | 0.00 | 0.00 | 0.00 | 70 | 1013.0 |
| 20260502214558 | 23 | 222 | 11.3 | 4.8 | 0.00 | 0.00 | 0.00 | 69 | 1013.0 |
| 20260502213558 | 23 | 222 | 11.3 | 4.8 | 0.00 | 0.00 | 0.00 | 69 | 1013.0 |
| 20260502212557 | 23 | 222 | 12.9 | 6.4 | 0.00 | 0.00 | 0.00 | 63 | 1013.0 |
| 20260502211557 | 24 | 222 | 12.9 | 6.4 | 0.00 | 0.00 | 0.00 | 62 | 1013.0 |
| 20260502210556 | 24 | 222 | 12.9 | 6.4 | 0.00 | 0.00 | 0.00 | 62 | 1013.0 |
| 20260502205555 | 24 | 222 | 12.9 | 6.4 | 0.00 | 0.00 | 0.00 | 62 | 1013.0 |
| 20260502204555 | 24 | 222 | 12.9 | 6.4 | 0.00 | 0.00 | 0.00 | 61 | 1013.0 |
| 20260502203554 | 24 | 222 | 12.9 | 6.4 | 0.00 | 0.00 | 0.00 | 61 | 1014.0 |
| 20260502202553 | 24 | 219 | 16.1 | 9.7 | 0.00 | 0.00 | 0.00 | 58 | 1013.0 |
| 20260502201553 | 24 | 219 | 16.1 | 9.7 | 0.00 | 0.00 | 0.00 | 58 | 1014.0 |
| 20260502200552 | 25 | 219 | 16.1 | 9.7 | 0.00 | 0.00 | 0.00 | 58 | 1014.0 |
| 20260502195552 | 25 | 219 | 16.1 | 9.7 | 0.00 | 0.00 | 0.00 | 58 | 1014.0 |
| 20260502194551 | 25 | 219 | 16.1 | 9.7 | 0.00 | 0.00 | 0.00 | 57 | 1014.0 |
| 20260502193550 | 25 | 219 | 16.1 | 9.7 | 0.00 | 0.00 | 0.00 | 57 | 1014.0 |
| 20260502192550 | 25 | 219 | 16.1 | 12.9 | 0.00 | 0.00 | 0.00 | 54 | 1014.0 |
| 20260502191549 | 25 | 219 | 16.1 | 12.9 | 0.00 | 0.00 | 0.00 | 54 | 1014.0 |
| 20260502190548 | 25 | 219 | 16.1 | 12.9 | 0.00 | 0.00 | 0.00 | 54 | 1014.0 |
| 20260502185548 | 25 | 219 | 16.1 | 12.9 | 0.00 | 0.00 | 0.00 | 53 | 1014.0 |